sat.trackr.live / text

‹ back to catalog

STARLINK-5739

NORAD 55571 · 2023-020C

PAYLOAD ACTIVE UNKNOWN

§ Identity

Operator
Country
US
Launch date
2023-02-12
Launch site
AFETR
Launch vehicle
Mass (kg)
RCS (m²)

Purposes: comms

External: N2YO · Heavens-Above · Gunter

§ Orbital elements

Epoch: 2026-09-20T22:31:04.326528Z

Period
94.27 min
Inclination
43.0041°
Eccentricity
0.0001103
Mean motion
15.27574219 rev/d
Perigee alt
482.3 km
Apogee alt
483.8 km
Semi-major
6,861.2 km
B*
3.3495e-6
RAAN
345.9448°
Arg perigee
273.4498°
Mean anomaly
86.6227°
Rev number
19,873

§ Raw data

STARLINK-57391 55571U 23020C   26263.93824452 -.00000170  00000+0  33495-5 0  99932 55571  43.0041 345.9448 0001103 273.4498  86.6227 15.27574219198738

JSON: /api/v1/satellites/55571 · /tle

For live sub-satellite position, see the globe view (requires WebGL).

§ Visibility from observer

Set your observer location to see the next 7 days of passes ≥ 10°. The values pass through the URL so the page stays shareable.

No JS? Fill the form by hand. The geolocation button needs JavaScript.